FW0442 Weather Reports


Display with metric or nautical units.
time (UTC)temp
F
wind
direction
speed
MPH
gust
MPH
rain 1hr
in
rain 24hr
in
rain mn
in
humidity
%
barometer
mb
20260510194431 51 0 0.0 2.0 0.00 0.00 0.00 64 1014.4
20260510191432 52 39 1.0 5.0 0.00 0.00 0.00 61 1014.6
20260510184431 53 6 2.0 6.0 0.00 0.00 0.00 59 1014.7
20260510181431 54 45 3.0 5.0 0.00 0.00 0.00 58 1014.7
20260510174431 53 7 1.0 7.0 0.00 0.00 0.00 58 1014.6
20260510171433 55 357 3.0 7.0 0.00 0.00 0.00 57 1014.8
20260510164431 56 354 3.0 9.0 0.00 0.00 0.00 57 1015.2
20260510154430 57 344 5.0 10.0 0.00 0.00 0.00 56 1015.7
20260510151429 56 30 3.0 11.0 0.00 0.00 0.00 57 1016.1
20260510144428 57 326 3.0 10.0 0.00 0.00 0.00 61 1016.3
20260510141427 56 55 3.0 11.0 0.00 0.00 0.00 59 1016.6
20260510134427 57 337 3.0 9.0 0.00 0.00 0.00 64 1016.8
20260510131427 55 17 3.0 10.0 0.00 0.00 0.00 65 1017.2
20260510124425 54 23 2.0 11.0 0.00 0.00 0.00 69 1017.4
20260510121424 55 69 4.0 11.0 0.00 0.00 0.00 71 1017.8
20260510114424 53 44 3.0 11.0 0.00 0.00 0.00 71 1018.2
20260510111423 51 68 2.0 10.0 0.00 0.00 0.00 77 1018.6
20260510104424 51 355 2.0 9.0 0.00 0.00 0.00 77 1018.9
20260510101420 50 66 2.0 11.0 0.00 0.00 0.00 79 1018.9
20260510091421 49 0 4.0 10.0 0.00 0.00 0.00 81 1019.4
20260510084420 49 302 3.0 7.0 0.00 0.00 0.00 83 1019.4
20260510081420 47 51 3.0 9.0 0.00 0.00 0.00 84 1019.5
20260510074419 47 68 3.0 9.0 0.00 0.00 0.00 86 1019.4
20260510061417 47 347 1.0 7.0 0.00 0.00 0.00 89 1019.2
20260510054416 47 351 1.0 6.0 0.00 0.00 0.00 91 1019.1
20260510051415 47 25 3.0 6.0 0.00 0.00 0.00 91 1019.1
20260510044415 47 56 1.0 9.0 0.00 0.00 0.00 91 1019.1
20260510041416 47 24 1.0 12.0 0.00 0.00 0.00 91 1019.2
20260510034414 47 28 3.0 9.0 0.00 0.00 0.00 91 1019.3
20260510031414 47 114 4.0 7.0 0.00 0.01 0.00 92 1019.3
20260510021415 47 34 2.0 9.0 0.00 0.01 0.00 92 1019.6
20260510014411 48 45 4.0 12.0 0.00 0.01 0.00 92 1019.6
20260510001409 50 20 5.0 13.0 0.00 0.01 0.00 89 1019.2
20260509234409 50 3 6.0 11.0 0.00 0.01 0.00 87 1019.2
20260509231408 50 312 2.0 10.0 0.00 0.01 0.00 88 1019.3
20260509224408 51 114 4.0 12.0 0.00 0.02 0.02 86 1019.2
20260509221407 51 78 4.0 10.0 0.00 0.02 0.02 86 1019.1
20260509214407 52 326 4.0 13.0 0.00 0.02 0.02 85 1019.0
20260509211403 53 350 5.0 11.0 0.00 0.02 0.02 84 1018.7
20260509204402 54 59 4.0 11.0 0.00 0.03 0.02 83 1018.5